Tracking 20626 objects as of 10-Apr-2020
HD Live streaming from Space Station
objects crossing your sky now

PEGASUS DEB

Track PEGASUS DEB now!
10-day predictions


NORAD ID: 24239
Int'l Code: 1994-029LN
Perigee: 577.9 km
Apogee: 896.0 km
Inclination: 81.5 °
Period: 99.4 minutes
Semi major axis: 7107 km
RCS: 0.0506 m2 (small)
Launch date: May 19, 1994
Source: United States (US)
Launch site: AIR FORCE WESTERN TEST RANGE (AFWTR)

Note: This is SATELLITE DEBRIS
aabbcc
Your satellite tracking list
Your tracking list is empty




NASA's NSSDC Master Catalog

Two Line Element Set (TLE):
1 24239U 94029LN  20100.72095841 +.00000571 +00000-0 +10672-3 0  9995
2 24239 081.5219 307.7136 0223747 347.7528 011.8274 14.48733052246884
Source of the keplerian elements: AFSPC